Robinson, IL

12:26 AM CDT on July 21, 2017 (GMT -0500)
Robinson Municipal

Weather History for KRSV - December, 2012

Change the Weather History Date:

Monday, December 10, 2012

  Actual Average (KLWV) Record (KLWV)
Temperature  
Mean Temperature 38 °F -  
Max Temperature 43 °F 42 °F 61 °F (1996)
Min Temperature 32 °F 28 °F 3 °F (2005)
Degree Days  
Heating Degree Days 28    
Moisture  
Dew Point 31 °F    
Average Humidity 86    
Maximum Humidity 92    
Minimum Humidity 81    
Precipitation  
Precipitation 0.00 in - - ()
Sea Level Pressure  
Sea Level Pressure 29.91 in    
Wind  
Wind Speed 10 mph (West)    
Max Wind Speed 17 mph    
Max Gust Speed 24 mph    
Visibility 10 miles    
Events      
Averages and records for this station are not official NWS values.
T = Trace of Precipitation, MM = Missing Value Source: NWS Daily Summary

Daily Weather History Graph

Daily Weather History Graph

Search for Another Location

Airport or City:

Trip Planner

Search our weather history database for the weather conditions in past years. The results will help you decide how hot, cold, wet, or windy it might be!

Date:

Astronomy

Dec. 10, 2012 Rise Set
Actual Time 6:59 AM CST 4:28 PM CST
Civil Twilight 6:29 AM CST 4:58 PM CST
Nautical Twilight 5:55 AM CST 5:31 PM CST
Astronomical Twilight 5:23 AM CST 6:04 PM CST
Moon 3:43 AM CST (12/10) 2:16 PM CST (12/10)
Length of Visible Light 10h 29m
Length of Day
9h 29m
Waning Crescent, 10% of the Moon is Illuminated
Dec 10
Waning Crescent
Dec 13
New
Dec 19
First Quarter
Dec 28
Full
Jan 4
Last Quarter

Hourly Weather History & Observations

Time (CST) Temp. Windchill Dew Point Humidity Pressure Visibility Wind Dir Wind Speed Gust Speed Precip Events Conditions
12:15 AM 43.7 °F 38.1 °F 40.6 °F 89% 29.83 in 10.0 mi WNW 10.4 mph - N/A   Overcast
12:35 AM 43.7 °F 37.3 °F 38.7 °F 82% 29.83 in 10.0 mi WNW 12.7 mph 17.3 mph N/A   Overcast
12:55 AM 43.3 °F 38.1 °F 37.8 °F 81% 29.83 in 10.0 mi West 9.2 mph - N/A   Overcast
1:15 AM 43.2 °F 39.7 °F 37.9 °F 82% 29.84 in 10.0 mi West 5.8 mph - N/A   Overcast
1:35 AM 42.3 °F 39.4 °F 37.8 °F 84% 29.83 in 10.0 mi West 4.6 mph - N/A   Scattered Clouds
1:55 AM 41.9 °F - 37.8 °F 85% 29.84 in 10.0 mi Calm Calm - N/A   Clear
2:15 AM 41.9 °F 40.0 °F 37.6 °F 85% 29.83 in 10.0 mi West 3.5 mph - N/A   Clear
2:35 AM 42.1 °F - 38.3 °F 86% 29.83 in 10.0 mi Calm Calm - N/A   Mostly Cloudy
2:55 AM 41.9 °F - 38.8 °F 89% 29.82 in 10.0 mi Calm Calm - N/A   Overcast
3:15 AM 42.3 °F 38.6 °F 39.4 °F 90% 29.82 in 10.0 mi WSW 5.8 mph - N/A   Overcast
3:35 AM 42.8 °F 39.3 °F 38.5 °F 85% 29.81 in 10.0 mi WNW 5.8 mph - N/A   Overcast
3:55 AM 41.9 °F 35.4 °F 37.6 °F 85% 29.81 in 10.0 mi West 11.5 mph 18.4 mph N/A   Overcast
4:15 AM 39.9 °F 32.9 °F 35.2 °F 83% 29.80 in 10.0 mi WNW 11.5 mph - N/A   Mostly Cloudy
4:35 AM 38.8 °F 31.2 °F 34.5 °F 84% 29.80 in 10.0 mi WNW 12.7 mph 16.1 mph N/A   Scattered Clouds
4:55 AM 38.3 °F 30.5 °F 34.7 °F 87% 29.81 in 10.0 mi WNW 12.7 mph - N/A   Clear
5:15 AM 37.4 °F 28.9 °F 34.0 °F 87% 29.81 in 10.0 mi WNW 13.8 mph 19.6 mph N/A   Mostly Cloudy
5:35 AM 36.7 °F 26.9 °F 32.9 °F 86% 29.83 in 10.0 mi West 17.3 mph - N/A   Overcast
5:55 AM 35.6 °F 27.1 °F 32.5 °F 89% 29.83 in 10.0 mi West 12.7 mph - N/A   Overcast
6:15 AM 35.1 °F 26.9 °F 32.2 °F 89% 29.84 in 10.0 mi West 11.5 mph 15.0 mph N/A   Overcast
6:55 AM 34.0 °F 25.5 °F 32.0 °F 92% 29.86 in 10.0 mi West 11.5 mph - N/A   Overcast
7:15 AM 33.6 °F 24.1 °F 31.1 °F 90% 29.86 in 10.0 mi West 13.8 mph 19.6 mph N/A   Overcast
7:35 AM 33.3 °F 24.6 °F 30.2 °F 89% 29.87 in 10.0 mi West 11.5 mph - N/A   Overcast
7:55 AM 32.9 °F 23.7 °F 29.8 °F 88% 29.87 in 10.0 mi West 12.7 mph - N/A   Overcast
8:15 AM 32.5 °F 23.2 °F 29.1 °F 87% 29.89 in 10.0 mi WNW 12.7 mph - N/A   Overcast
8:35 AM 32.9 °F 22.4 °F 29.7 °F 88% 29.88 in 10.0 mi West 16.1 mph 20.7 mph N/A   Overcast
8:55 AM 32.9 °F 23.2 °F 29.5 °F 87% 29.89 in 10.0 mi WNW 13.8 mph - N/A   Overcast
9:15 AM 32.9 °F 24.1 °F 29.8 °F 88% 29.89 in 10.0 mi West 11.5 mph 18.4 mph N/A   Overcast
9:35 AM 32.5 °F 22.7 °F 29.8 °F 90% 29.89 in 10.0 mi WNW 13.8 mph - N/A   Overcast
9:55 AM 32.4 °F 22.1 °F 29.7 °F 90% 29.89 in 10.0 mi West 15.0 mph 18.4 mph N/A   Overcast
10:35 AM 32.9 °F 22.8 °F 28.8 °F 85% 29.89 in 10.0 mi West 15.0 mph - N/A   Overcast
10:55 AM 33.3 °F 23.7 °F 28.4 °F 82% 29.89 in 10.0 mi WNW 13.8 mph - N/A   Overcast
11:15 AM 33.1 °F 22.6 °F 28.8 °F 84% 29.89 in 10.0 mi West 16.1 mph 21.9 mph N/A   Overcast
11:55 AM 32.9 °F 22.4 °F 29.3 °F 87% 29.89 in 10.0 mi West 16.1 mph 24.2 mph N/A   Overcast
12:15 PM 32.9 °F 23.7 °F 28.8 °F 85% 29.88 in 10.0 mi WNW 12.7 mph 20.7 mph N/A   Overcast
12:35 PM 32.2 °F 22.3 °F 28.6 °F 87% 29.88 in 10.0 mi WNW 13.8 mph 21.9 mph N/A   Overcast
12:55 PM 32.2 °F 22.3 °F 28.6 °F 87% 29.87 in 10.0 mi WNW 13.8 mph 17.3 mph N/A   Overcast
1:15 PM 32.0 °F 22.5 °F 28.9 °F 88% 29.87 in 10.0 mi WNW 12.7 mph - N/A   Overcast
1:35 PM 32.0 °F 22.5 °F 28.4 °F 87% 29.87 in 10.0 mi West 12.7 mph 18.4 mph N/A   Overcast
1:55 PM 32.2 °F 24.4 °F 28.9 °F 88% 29.87 in 10.0 mi West 9.2 mph 18.4 mph N/A   Overcast
2:15 PM 32.2 °F 23.2 °F 28.9 °F 88% 29.89 in 10.0 mi West 11.5 mph - N/A   Overcast
2:35 PM 32.4 °F 22.5 °F 29.3 °F 88% 29.89 in 10.0 mi West 13.8 mph - N/A   Overcast
2:55 PM 32.4 °F 23.0 °F 28.9 °F 87% 29.89 in 10.0 mi West 12.7 mph 17.3 mph N/A   Overcast
3:15 PM 32.4 °F 24.0 °F 29.1 °F 88% 29.89 in 10.0 mi West 10.4 mph - N/A   Overcast
3:35 PM 32.2 °F 22.7 °F 28.9 °F 88% 29.91 in 10.0 mi West 12.7 mph - N/A   Overcast
3:55 PM 32.0 °F 22.5 °F 28.8 °F 88% 29.93 in 10.0 mi West 12.7 mph - N/A   Overcast
4:15 PM 32.2 °F 23.8 °F 28.9 °F 88% 29.93 in 10.0 mi WNW 10.4 mph - N/A   Overcast
4:35 PM 32.2 °F 23.8 °F 29.1 °F 88% 29.93 in 10.0 mi West 10.4 mph 17.3 mph N/A   Overcast
4:55 PM 32.4 °F 23.5 °F 28.9 °F 87% 29.93 in 10.0 mi West 11.5 mph - N/A   Overcast
5:15 PM 32.5 °F 23.7 °F 29.1 °F 87% 29.94 in 10.0 mi West 11.5 mph 20.7 mph N/A   Overcast
5:35 PM 32.5 °F 24.2 °F 29.3 °F 88% 29.96 in 10.0 mi West 10.4 mph - N/A   Overcast
5:55 PM 32.9 °F 23.2 °F 29.1 °F 86% 29.97 in 10.0 mi West 13.8 mph - N/A   Overcast
6:15 PM 32.9 °F 23.7 °F 28.2 °F 83% 29.97 in 10.0 mi WNW 12.7 mph - N/A   Overcast
6:35 PM 32.5 °F 23.7 °F 28.2 °F 84% 29.98 in 10.0 mi West 11.5 mph 20.7 mph N/A   Overcast
6:55 PM 32.4 °F 23.5 °F 27.9 °F 83% 29.98 in 10.0 mi West 11.5 mph 20.7 mph N/A   Overcast
7:15 PM 32.4 °F 23.5 °F 28.2 °F 85% 29.99 in 10.0 mi West 11.5 mph 17.3 mph N/A   Overcast
7:35 PM 32.4 °F 23.0 °F 28.0 °F 84% 30.00 in 10.0 mi West 12.7 mph - N/A   Overcast
7:55 PM 32.4 °F 23.5 °F 27.5 °F 82% 30.00 in 10.0 mi West 11.5 mph 17.3 mph N/A   Overcast
8:15 PM 32.4 °F 25.3 °F 27.9 °F 83% 30.01 in 10.0 mi West 8.1 mph - N/A   Overcast
8:35 PM 32.4 °F 23.0 °F 28.0 °F 84% 30.02 in 10.0 mi West 12.7 mph - N/A   Overcast
8:55 PM 32.4 °F 25.3 °F 28.0 °F 84% 30.02 in 10.0 mi West 8.1 mph - N/A   Overcast
9:15 PM 32.4 °F 24.0 °F 28.4 °F 85% 30.02 in 10.0 mi West 10.4 mph - N/A   Overcast
9:55 PM 32.4 °F 26.0 °F 28.0 °F 84% 30.03 in 10.0 mi West 6.9 mph - N/A   Overcast
10:15 PM 32.4 °F 24.6 °F 28.2 °F 85% 30.03 in 10.0 mi West 9.2 mph - N/A   Overcast
10:35 PM 32.2 °F 25.0 °F 28.0 °F 85% 30.03 in 10.0 mi West 8.1 mph - N/A   Overcast
10:55 PM 32.2 °F 26.7 °F 28.2 °F 85% 30.04 in 10.0 mi West 5.8 mph - N/A   Overcast
11:15 PM 32.2 °F 23.8 °F 27.5 °F 83% 30.04 in 10.0 mi West 10.4 mph - N/A   Overcast
11:35 PM 32.2 °F 25.0 °F 27.1 °F 82% 30.05 in 10.0 mi West 8.1 mph - N/A   Overcast
11:55 PM 32.2 °F 25.0 °F 27.5 °F 83% 30.05 in 10.0 mi West 8.1 mph - N/A   Overcast